Regional Weather Roundup
Issued by NWS Sioux Falls, SD

Home | Current Version | Previous Version | Text Only | Print | Product List | Glossary On
Versions: 1 2 3 4 5 6 7 8 9 10 11 12 13 14 15 16 17 18 19 20 21 22 23 24 25 26 27 28 29 30 31 32 33 34 35 36 37 38 39 40 41 42 43 44 45 46 47 48 49 50
000
ASUS43 KFSD 240110
RWRFSD

WEATHER ROUNDUP FOR SE SOUTH DAKOTA/SW MINNESOTA/NW IOWA
NATIONAL WEATHER SERVICE SIOUX FALLS SD
800 PM CDT MON MAY 23 2016

NOTE: "FAIR" INDICATES FEW OR NO CLOUDS BELOW 12,000 FEET WITH NO
SIGNIFICANT WEATHER AND OR OBSTRUCTIONS TO VISIBILITY.


SDZ038>040-050-052>070-240200-
SOUTHEAST SOUTH DAKOTA

CITY           SKY/WX    TMP DP  RH WIND       PRES   REMARKS
BROOKINGS      CLOUDY    71  59  65 SW6       29.74S
CHAMBERLAIN    CLEAR     76  57  51 CALM      29.70R
HURON          CLEAR     72  53  51 SW5       29.70R
MADISON        FAIR      72  63  73 S6        29.75R
MITCHELL       CLEAR     75  58  55 S7        29.72R
SIOUX FALLS    CLOUDY    73  59  61 CALM      29.74S
WINNER         FAIR      76  50  40 SW5       29.70S
YANKTON        CLOUDY    73  59  60 E7        29.72S
$$

MNZ071-072-080-081-089-090-097-098-240200-
SOUTHWEST MINNESOTA

CITY           SKY/WX    TMP DP  RH WIND       PRES   REMARKS
FAIRMONT       CLOUDY    70  61  73 SW15      29.78F
JACKSON        RAIN      68  61  77 S3        29.80S
LUVERNE        CLOUDY    64  59  82 S9        29.77S
MARSHALL       CLOUDY    72  62  71 SW8       29.73R
MONTEVIDEO     CLOUDY    73  57  56 W7        29.72R
PIPESTONE      CLOUDY    70  63  78 SW6       29.75S
REDWOOD FALLS  TSTM      64  59  83 S23G48    29.73S
TRACY          CLOUDY    66  59  77 S16G29    29.75R
WINDOM         CLOUDY    66  63  88 S15G21    29.79R
WORTHINGTON    TSTM      63  61  94 S14       29.80F FOG
$$

IAZ001>003-012>014-020>022-031-032-NEZ013-014-SDZ071-240200-
NORTHWEST IOWA

CITY           SKY/WX    TMP DP  RH WIND       PRES   REMARKS
CHEROKEE       CLOUDY    65  64  96 S12       29.77S
DENISON        CLOUDY    66  64  94 CALM      29.77S
ESTHERVILLE    CLOUDY    67  61  81 S12       29.79S
LE MARS        CLOUDY    66  64  94 S8        29.78F
ORANGE CITY    CLOUDY    64  63  94 S10       29.79R
SHELDON        CLOUDY    64  63  94 S15       29.78R
SIOUX CITY     CLOUDY    68  64  87 S9        29.76R
SPENCER        LGT RAIN  68  63  84 S12       29.78S
STORM LAKE     LGT RAIN  66  63  88 SW17G23   29.78F
$$

ABBREVIATIONS USED IN REMARKS
   TC - TEMPERATURE IN CELSIUS
  WCI - WIND CHILL INDEX
   HX - HEAT INDEX
  VSB - VISIBILITY





USA.gov is the U.S. government's official web portal to all federal, state and local government web resources and services.